TimeEST,TemperatureF,Dew PointF,Humidity,Sea Level PressureIn,VisibilityMPH,Wind Direction,Wind SpeedMPH,Gust SpeedMPH,PrecipitationIn,Events,Conditions,WindDirDegrees,DateUTC
12:18 AM,30.2,26.6,86,30.07,2.5,Calm,Calm,-,0.00,Snow,Light Snow,0,2013-03-06 05:18:00
12:33 AM,28.4,26.6,93,30.07,6.0,Calm,Calm,-,0.00,,Overcast,0,2013-03-06 05:33:00
12:54 AM,30.0,26.1,85,30.09,8.0,Calm,Calm,-,0.00,,Overcast,0,2013-03-06 05:54:00
1:54 AM,30.0,26.1,85,30.09,7.0,Calm,Calm,-,N/A,,Overcast,0,2013-03-06 06:54:00
2:54 AM,30.0,27.0,88,30.08,7.0,Calm,Calm,-,N/A,,Overcast,0,2013-03-06 07:54:00
3:54 AM,33.1,27.0,78,30.09,10.0,Calm,Calm,-,N/A,,Overcast,0,2013-03-06 08:54:00
4:54 AM,33.1,28.9,85,30.10,7.0,ENE,3.5,-,0.00,Snow,Light Snow,60,2013-03-06 09:54:00
5:01 AM,33.8,28.4,81,30.08,9.0,Calm,Calm,-,0.00,,Overcast,0,2013-03-06 10:01:00
5:54 AM,33.1,30.0,89,30.11,5.0,Calm,Calm,-,0.00,,Overcast,0,2013-03-06 10:54:00
6:16 AM,33.8,30.2,87,30.09,5.0,North,3.5,-,0.00,Snow,Light Snow,10,2013-03-06 11:16:00
6:43 AM,33.8,30.2,87,30.09,2.5,Calm,Calm,-,0.00,Snow,Light Snow,0,2013-03-06 11:43:00
6:54 AM,33.1,30.0,89,30.12,1.8,Calm,Calm,-,0.00,Snow,Light Snow,0,2013-03-06 11:54:00
7:37 AM,33.8,30.2,87,30.11,1.8,ENE,8.1,-,0.01,Snow,Light Snow,70,2013-03-06 12:37:00
7:45 AM,33.8,30.2,87,30.12,2.5,ENE,8.1,-,0.01,Snow,Light Snow,70,2013-03-06 12:45:00
7:54 AM,33.1,30.0,89,30.14,3.0,NE,4.6,-,0.01,Snow,Light Snow,40,2013-03-06 12:54:00
8:54 AM,34.0,33.1,96,30.15,3.0,NE,10.4,19.6,0.00,Snow,Light Snow,50,2013-03-06 13:54:00
9:54 AM,35.1,33.1,92,30.16,10.0,East,11.5,19.6,0.00,,Overcast,80,2013-03-06 14:54:00
10:54 AM,36.0,24.1,62,30.16,10.0,ENE,13.8,24.2,N/A,,Overcast,70,2013-03-06 15:54:00
11:12 AM,35.6,24.8,65,30.13,10.0,ENE,11.5,20.7,N/A,,Overcast,60,2013-03-06 16:12:00
11:54 AM,35.1,23.0,61,30.15,10.0,East,16.1,25.3,N/A,,Overcast,90,2013-03-06 16:54:00
12:54 PM,35.1,23.0,61,30.14,10.0,NNE,9.2,-,0.00,,Overcast,30,2013-03-06 17:54:00
1:49 PM,35.6,24.8,65,30.12,9.0,NE,6.9,-,0.00,Snow,Light Snow,40,2013-03-06 18:49:00
1:54 PM,35.1,24.1,64,30.15,5.0,NNE,6.9,-,0.00,Snow,Light Snow,30,2013-03-06 18:54:00
2:08 PM,33.8,24.8,70,30.12,2.0,NE,4.6,-,0.00,Snow,Light Snow,40,2013-03-06 19:08:00
2:16 PM,33.8,24.8,70,30.12,3.0,NE,11.5,18.4,0.00,Snow,Light Snow,50,2013-03-06 19:16:00
2:54 PM,35.1,25.0,67,30.15,8.0,NE,10.4,16.1,0.00,Snow,Light Snow,50,2013-03-06 19:54:00
3:51 PM,35.6,26.6,70,30.13,2.5,ENE,6.9,17.3,0.00,Snow,Light Snow,60,2013-03-06 20:51:00
3:54 PM,35.1,26.1,70,30.15,3.0,ENE,9.2,16.1,0.00,Snow,Light Snow,60,2013-03-06 20:54:00
4:51 PM,33.8,24.8,70,30.14,2.5,East,12.7,24.2,0.01,Snow,Light Snow,80,2013-03-06 21:51:00
4:54 PM,34.0,25.0,70,30.17,1.2,ENE,13.8,24.2,0.01,Snow,Light Snow,70,2013-03-06 21:54:00
5:08 PM,33.8,26.6,75,30.15,3.0,ENE,9.2,-,0.01,Snow,Light Snow,70,2013-03-06 22:08:00
5:54 PM,34.0,24.1,67,30.18,9.0,NE,11.5,17.3,0.01,Snow,Light Snow,50,2013-03-06 22:54:00
6:54 PM,34.0,21.9,61,30.20,10.0,ENE,5.8,-,0.00,,Overcast,60,2013-03-06 23:54:00
7:54 PM,34.0,19.0,54,30.19,10.0,NE,6.9,-,N/A,,Overcast,40,2013-03-07 00:54:00
8:54 PM,33.1,21.0,61,30.18,10.0,ENE,9.2,-,N/A,,Overcast,60,2013-03-07 01:54:00
9:54 PM,33.1,19.9,59,30.17,10.0,NE,5.8,-,N/A,,Overcast,50,2013-03-07 02:54:00
10:54 PM,33.1,19.9,59,30.16,10.0,Variable,5.8,-,N/A,,Overcast,0,2013-03-07 03:54:00
11:38 PM,32.0,21.2,64,30.14,10.0,NE,9.2,-,N/A,,Overcast,40,2013-03-07 04:38:00
11:54 PM,32.0,21.0,64,30.17,10.0,NNE,10.4,-,N/A,,Overcast,20,2013-03-07 04:54:00